Date String (YYYY-MM-DD hh:mm:ss) UTC,Instrument flags,Ambient pressure (hPa),Sample flow (lpm),Bypass flow (lpm),Sample temperature (°C),Ambient temperature (°C),ASC tube jacket temperature (°C),LED temperature (°C),Box temperature (°C),Sample RH (%),Span deviation,Mass concentration (μg/m³),Mass concentration (μg/m³),Mass concentration (μg/m³)
DateTimeUTC,F1_M11,P_M11,Q1_M11,Q2_M11,T1_M11,T2_M11,T3_M11,T4_M11,T5_M11,U1_M11,ZSPAN_M11,X0_M11,X2_M11,X1_M11
2022-12-15 16:00:00,,0821.0,5.00,0.00,21.8,20.9,00.0,30.7,23.5,07.9,0000.0,0008.70,0004.17,0003.67
2022-12-15 16:01:00,,0821.0,5.04,0.00,21.7,20.3,00.0,30.7,23.3,07.8,0000.0,0008.59,0004.16,0003.66
2022-12-15 16:02:00,,0821.0,4.95,0.00,21.6,19.9,00.0,30.7,23.2,08.0,0000.0,0008.82,0004.16,0003.66
2022-12-15 16:03:00,,0821.0,5.06,0.00,21.6,19.6,00.0,30.7,23.1,08.0,0000.0,0008.78,0004.13,0003.65
2022-12-15 16:04:00,,0821.0,4.98,0.00,21.5,19.4,00.0,30.7,23.0,08.0,0000.0,0008.93,0004.14,0003.66
2022-12-15 16:05:00,,0821.0,4.98,0.00,21.4,19.3,00.0,30.6,22.9,08.2,0000.0,0009.43,0004.17,0003.65
2022-12-15 16:06:00,,0821.0,5.04,0.00,21.4,19.3,00.0,30.6,22.9,08.3,0000.0,0009.52,0004.19,0003.65
2022-12-15 16:07:00,,0821.0,4.97,0.00,21.5,20.7,00.0,30.5,23.2,08.4,0000.0,0009.93,0004.19,0003.65
2022-12-15 16:08:00,,0821.1,5.02,0.00,21.6,21.8,00.0,30.5,23.5,08.2,0000.0,0009.87,0004.21,0003.66
2022-12-15 16:09:00,,0821.1,5.01,0.00,21.7,21.7,00.0,30.5,23.6,08.1,0000.0,0010.09,0004.23,0003.66
2022-12-15 16:10:00,,0821.0,4.97,0.00,21.7,21.2,00.0,30.6,23.6,08.0,0000.0,0009.61,0004.25,0003.66
2022-12-15 16:11:00,,0821.0,5.04,0.00,21.7,20.8,00.0,30.6,23.4,07.9,0000.0,0009.51,0004.22,0003.66
2022-12-15 16:12:00,,0821.0,4.95,0.00,21.6,20.5,00.0,30.6,23.4,07.9,0000.0,0009.28,0004.20,0003.67
2022-12-15 16:13:00,,0821.1,5.05,0.00,21.6,20.4,00.0,30.6,23.3,08.0,0000.0,0009.11,0004.21,0003.69
2022-12-15 16:14:00,,0821.0,4.93,0.00,21.6,20.2,00.0,30.6,23.3,08.0,0000.0,0009.70,0004.23,0003.70
2022-12-15 16:15:00,,0821.0,4.96,0.00,21.6,20.1,00.0,30.6,23.3,08.1,0000.0,0009.71,0004.23,0003.70
2022-12-15 16:16:00,,0821.1,4.96,0.00,21.6,20.0,00.0,30.6,23.3,08.2,0000.0,0009.53,0004.23,0003.69
2022-12-15 16:17:00,,0821.1,5.00,0.00,21.6,20.0,00.0,30.6,23.3,08.2,0000.0,0009.07,0004.20,0003.71
2022-12-15 16:18:00,,0821.1,5.04,0.00,21.6,20.0,00.0,30.5,23.3,08.3,0000.0,0008.97,0004.19,0003.73
2022-12-15 16:19:00,,0821.1,4.96,0.00,21.5,20.0,00.0,30.5,23.3,08.4,0000.0,0008.35,0004.18,0003.74
2022-12-15 16:20:00,,0821.1,5.04,0.00,21.5,19.9,00.0,30.5,23.2,08.2,0000.0,0008.32,0004.18,0003.76
2022-12-15 16:21:00,,0821.0,4.97,0.00,21.5,20.7,00.0,30.5,23.4,08.2,0000.0,0008.75,0004.21,0003.80
2022-12-15 16:22:00,,0821.1,5.02,0.00,21.7,21.8,00.0,30.4,23.7,08.2,0000.0,0008.67,0004.24,0003.83
2022-12-15 16:23:00,,0821.0,4.99,0.00,21.8,22.2,00.0,30.5,23.8,08.1,0000.0,0008.73,0004.28,0003.86
2022-12-15 16:24:00,,0821.0,5.00,0.00,21.9,21.8,00.0,30.6,23.8,08.1,0000.0,0008.94,0004.33,0003.88
2022-12-15 16:25:00,,0821.1,5.01,0.00,21.9,21.4,00.0,30.6,23.7,08.1,0000.0,0009.25,0004.40,0003.90
2022-12-15 16:26:00,,0821.1,5.01,0.00,21.9,21.2,00.0,30.6,23.7,07.9,0000.0,0008.86,0004.43,0003.93
2022-12-15 16:27:00,,0821.0,5.00,0.00,21.9,20.9,00.0,30.6,23.7,07.9,0000.0,0008.97,0004.46,0003.96
2022-12-15 16:28:00,,0821.0,5.00,0.00,21.9,20.8,00.0,30.6,23.7,08.0,0000.0,0009.36,0004.51,0003.98
2022-12-15 16:29:00,,0821.0,5.00,0.00,21.9,20.7,00.0,30.7,23.7,07.9,0000.0,0009.62,0004.54,0004.01
2022-12-15 16:30:00,,0821.0,4.99,0.00,21.8,20.6,00.0,30.7,23.6,07.9,0000.0,0010.24,0004.59,0004.04
2022-12-15 16:31:00,,0821.0,5.00,0.00,21.8,20.5,00.0,30.7,23.6,08.0,0000.0,0010.62,0004.61,0004.06
2022-12-15 16:32:00,,0821.0,4.99,0.00,21.8,20.5,00.0,30.7,23.6,08.1,0000.0,0010.31,0004.64,0004.07
2022-12-15 16:33:00,,0821.0,5.04,0.00,21.8,20.5,00.0,30.7,23.6,08.1,0000.0,0010.66,0004.65,0004.07
2022-12-15 16:34:00,,0821.1,4.96,0.00,21.8,20.4,00.0,30.7,23.6,08.1,0000.0,0010.75,0004.68,0004.09
2022-12-15 16:35:00,,0821.1,5.04,0.00,21.8,20.3,00.0,30.7,23.5,08.0,0000.0,0010.76,0004.73,0004.13
2022-12-15 16:36:00,,0821.0,4.96,0.00,21.8,20.3,00.0,30.7,23.5,08.1,0000.0,0010.98,0004.77,0004.15
2022-12-15 16:37:00,,0821.0,5.00,0.00,21.8,20.9,00.0,30.6,23.6,08.2,0000.0,0010.92,0004.81,0004.17
2022-12-15 16:38:00,,0821.0,5.03,0.00,21.9,22.1,00.0,30.6,23.9,08.1,0000.0,0011.46,0004.83,0004.19
2022-12-15 16:39:00,,0821.0,5.01,0.00,22.0,22.4,00.0,30.7,24.1,08.0,0000.0,0011.14,0004.83,0004.21
2022-12-15 16:40:00,,0821.0,5.02,0.00,22.1,21.9,00.0,30.7,24.0,08.0,0000.0,0010.98,0004.86,0004.24
2022-12-15 16:41:00,,0821.0,4.97,0.00,22.1,21.5,00.0,30.8,23.9,08.0,0000.0,0010.77,0004.92,0004.25
2022-12-15 16:42:00,,0821.0,5.05,0.00,22.0,21.1,00.0,30.8,23.8,08.0,0000.0,0010.57,0005.00,0004.28
2022-12-15 16:43:00,,0821.0,4.95,0.00,22.0,20.9,00.0,30.8,23.8,08.0,0000.0,0010.44,0005.02,0004.31
2022-12-15 16:44:00,,0821.0,5.05,0.00,22.0,20.7,00.0,30.8,23.7,08.1,0000.0,0009.95,0005.03,0004.35
2022-12-15 16:45:00,,0821.0,4.96,0.00,22.0,20.6,00.0,30.8,23.7,08.1,0000.0,0009.97,0005.05,0004.37
2022-12-15 16:46:00,,0821.0,5.05,0.00,21.9,20.5,00.0,30.8,23.6,08.1,0000.0,0010.64,0005.07,0004.39
2022-12-15 16:47:00,,0821.0,4.96,0.00,21.9,20.4,00.0,30.8,23.6,08.2,0000.0,0010.22,0005.04,0004.42
2022-12-15 16:48:00,,0821.0,5.05,0.00,21.9,20.3,00.0,30.8,23.6,08.1,0000.0,0010.14,0005.05,0004.45
2022-12-15 16:49:00,,0821.0,4.95,0.00,21.8,20.2,00.0,30.8,23.5,08.1,0000.0,0009.44,0005.08,0004.48
2022-12-15 16:50:00,,0821.1,5.06,0.00,21.8,20.1,00.0,30.8,23.5,08.1,0000.0,0009.60,0005.15,0004.50
2022-12-15 16:51:00,,0821.1,5.00,0.00,21.8,20.0,00.0,30.8,23.4,08.1,0000.0,0009.77,0005.19,0004.52
2022-12-15 16:52:00,,0821.1,4.99,0.00,21.7,20.2,00.0,30.7,23.5,08.1,0000.0,0009.55,0005.20,0004.54
2022-12-15 16:53:00,,0821.2,5.01,0.00,21.8,21.4,00.0,30.7,23.7,08.1,0000.0,0009.58,0005.19,0004.56
2022-12-15 16:54:00,,0821.1,4.98,0.00,22.0,22.3,00.0,30.7,24.0,08.0,0000.0,0009.78,0005.20,0004.57
2022-12-15 16:55:00,,0821.1,5.02,0.00,22.0,21.9,00.0,30.7,23.9,07.9,0000.0,0009.78,0005.21,0004.59
2022-12-15 16:56:00,,0821.1,5.00,0.00,22.0,21.3,00.0,30.8,23.8,08.1,0000.0,0009.74,0005.22,0004.61
2022-12-15 16:57:00,,0821.2,4.99,0.00,21.9,21.0,00.0,30.8,23.7,08.1,0000.0,0009.25,0005.21,0004.62
2022-12-15 16:58:00,,0821.1,4.99,0.00,21.9,20.7,00.0,30.8,23.6,08.2,0000.0,0008.98,0005.21,0004.62
2022-12-15 16:59:00,,0821.1,5.04,0.00,21.9,20.4,00.0,30.8,23.5,08.3,0000.0,0009.60,0005.21,0004.63
